Baltimore Martin, MD

1:38 AM EST on February 20, 2018 (GMT -0500)
Martin State

Weather History for KMTN - September, 2013

Change the Weather History Date:

Monday, September 30, 2013

  Actual Average Record
Temperature  
Mean Temperature 62 °F -  
Max Temperature 73 °F 68 °F 87 °F (1998)
Min Temperature 50 °F 52 °F 44 °F (2000)
Degree Days  
Heating Degree Days 4    
Growing Degree Days 12 (Base 50)    
Moisture  
Dew Point 54 °F    
Average Humidity 86    
Maximum Humidity 100    
Minimum Humidity 50    
Precipitation  
Precipitation 0.00 in - - ()
Sea Level Pressure  
Sea Level Pressure 30.07 in    
Wind  
Wind Speed 2 mph (SE)    
Max Wind Speed 8 mph    
Max Gust Speed -    
Visibility 10 miles    
Events      
Averages and records for this station are not official NWS values.
T = Trace of Precipitation, MM = Missing Value Source: NWS Daily Summary

Daily Weather History Graph

Daily Weather History Graph

Search for Another Location

Airport or City:

Trip Planner

Search our weather history database for the weather conditions in past years. The results will help you decide how hot, cold, wet, or windy it might be!

Date:

Astronomy

Sep. 30, 2013 Rise Set
Actual Time 7:00 AM EDT 6:49 PM EDT
Civil Twilight 6:34 AM EDT 7:16 PM EDT
Nautical Twilight 6:03 AM EDT 7:47 PM EDT
Astronomical Twilight 5:31 AM EDT 8:18 PM EDT
Moon 2:37 AM EDT (9/30) 4:17 PM EDT (9/30)
Length of Visible Light 12h 41m
Length of Day
11h 48m
Waning Crescent, 19% of the Moon is Illuminated
Sep 30
Waning Crescent
Oct 4
New
Oct 11
First Quarter
Oct 18
Full
Oct 26
Last Quarter

Hourly Weather History & Observations

Time (EDT) Temp. Dew Point Humidity Pressure Visibility Wind Dir Wind Speed Gust Speed Precip Events Conditions
12:12 AM 55.4 °F 53.6 °F 94% 30.11 in 10.0 mi WNW 4.6 mph - N/A   Clear
12:33 AM 55.4 °F 53.6 °F 94% 30.10 in 10.0 mi Calm Calm - N/A   Clear
12:54 AM 55.4 °F 53.6 °F 94% 30.10 in 10.0 mi Calm Calm - N/A   Clear
1:15 AM 53.6 °F 53.6 °F 100% 30.10 in 10.0 mi Calm Calm - N/A   Clear
1:33 AM 53.6 °F 53.6 °F 100% 30.10 in 10.0 mi Calm Calm - N/A   Clear
1:54 AM 53.6 °F 53.6 °F 100% 30.09 in 10.0 mi Calm Calm - N/A   Clear
2:15 AM 53.6 °F 53.6 °F 100% 30.10 in 10.0 mi Calm Calm - N/A   Clear
2:33 AM 53.6 °F 53.6 °F 100% 30.09 in 10.0 mi Calm Calm - N/A   Clear
2:54 AM 53.6 °F 53.6 °F 100% 30.08 in 10.0 mi Calm Calm - N/A   Clear
3:15 AM 53.6 °F 53.6 °F 100% 30.08 in 10.0 mi Calm Calm - N/A   Clear
3:33 AM 51.8 °F 51.8 °F 100% 30.08 in 10.0 mi Calm Calm - N/A   Clear
3:54 AM 50.0 °F 50.0 °F 100% 30.08 in 10.0 mi Calm Calm - N/A   Clear
4:15 AM 50.0 °F 50.0 °F 100% 30.09 in 10.0 mi West 4.6 mph - N/A   Clear
4:33 AM 51.8 °F 51.8 °F 100% 30.08 in 10.0 mi WNW 3.5 mph - N/A   Clear
4:54 AM 50.0 °F 50.0 °F 100% 30.08 in 10.0 mi WNW 3.5 mph - N/A   Clear
5:15 AM 51.8 °F 51.8 °F 100% 30.09 in 10.0 mi Calm Calm - N/A   Clear
5:27 AM 51.8 °F 51.8 °F 100% 30.09 in 10.0 mi Calm Calm - N/A   Clear
5:55 AM 51.8 °F 51.8 °F 100% 30.09 in 10.0 mi NW 3.5 mph - N/A   Mostly Cloudy
6:45 AM 53.6 °F 53.6 °F 100% 30.10 in 10.0 mi Calm Calm - N/A   Mostly Cloudy
7:45 AM 55.4 °F 53.6 °F 94% 30.11 in 10.0 mi Calm Calm - N/A   Mostly Cloudy
8:50 AM 55.4 °F 53.6 °F 94% 30.11 in 10.0 mi Calm Calm - N/A   Scattered Clouds
9:45 AM 59.0 °F 57.2 °F 94% 30.11 in 10.0 mi Calm Calm - N/A   Scattered Clouds
10:50 AM 66.2 °F 48.2 °F 52% 30.11 in 10.0 mi Calm Calm - N/A   Scattered Clouds
11:55 AM 69.8 °F 51.8 °F 53% 30.10 in 10.0 mi Calm Calm - N/A   Scattered Clouds
12:45 PM 71.6 °F 53.6 °F 53% 30.08 in 10.0 mi ESE 3.5 mph - N/A   Scattered Clouds
1:45 PM 73.4 °F 57.2 °F 57% 30.05 in 10.0 mi ESE 6.9 mph - N/A   Scattered Clouds
2:47 PM 73.4 °F 55.4 °F 53% 30.03 in 10.0 mi ESE 5.8 mph - N/A   Scattered Clouds
3:50 PM 73.4 °F 53.6 °F 50% 30.02 in 10.0 mi ESE 8.1 mph - N/A   Scattered Clouds
4:50 PM 71.6 °F 55.4 °F 57% 30.01 in 10.0 mi ESE 8.1 mph - N/A   Scattered Clouds
5:55 PM 71.6 °F 55.4 °F 57% 30.02 in 10.0 mi SE 5.8 mph - N/A   Partly Cloudy
6:50 PM 66.2 °F 55.4 °F 68% 30.02 in 10.0 mi Calm Calm - N/A   Partly Cloudy
7:55 PM 62.6 °F 57.2 °F 82% 30.04 in 10.0 mi Calm Calm - N/A   Partly Cloudy
8:45 PM 62.6 °F 57.2 °F 82% 30.05 in 10.0 mi Calm Calm - N/A   Partly Cloudy
9:45 PM 60.8 °F 55.4 °F 82% 30.05 in 10.0 mi Calm Calm - N/A   Clear
10:15 PM 59.0 °F 55.4 °F 88% 30.05 in 10.0 mi Calm Calm - N/A   Clear
10:36 PM 60.8 °F 57.2 °F 88% 30.05 in 10.0 mi Calm Calm - N/A   Clear
10:57 PM 59.0 °F 57.2 °F 94% 30.05 in 10.0 mi Calm Calm - N/A   Clear
11:15 PM 59.0 °F 55.4 °F 88% 30.05 in 10.0 mi Calm Calm - N/A   Clear
11:36 PM 59.0 °F 55.4 °F 88% 30.05 in 10.0 mi Calm Calm - N/A   Clear
11:57 PM 59.0 °F 55.4 °F 88% 30.05 in 10.0 mi Calm Calm - N/A   Clear